Wind_Speed
30 29 27 26 27 29 29 27 26 26 27 27 26 26 25 24 24 24 25 26 27 28 27 28 29 26 24 25 29 32 31 29 28 29 30 31 32 32 29 28 27 28 28 28 27 26 26 26 27 27 27 28 28 28 29 29 28 29 28 29 30 30 29 28 28 29 29 29 29 30 31 31 31 31 32 32 32 32 33 34 34 35 35 35 36 36
32 30 28 29 30 30 29 28 28 28 29 29 28 28 27 27 26 27 28 29 30 31 29 30 31 29 26 26 27 30 31 29 28 28 28 30 33 33 31 29 29 29 29 28 28 27 27 27 28 28 28 29 29 30 30 30 29 30 30 30 31 31 31 31 30 29 30 30 30 31 32 33 33 33 33 33 33 33 33 34 35 35 36 36 36 37
34 32 30 31 32 31 31 30 30 30 30 30 30 30 29 29 29 29 30 31 33 34 33 33 34 31 28 28 27 29 31 29 28 28 28 30 32 32 33 32 31 30 29 29 29 29 28 28 29 28 28 29 30 30 30 30 30 31 31 32 32 32 32 32 32 31 31 31 31 32 33 34 35 35 35 35 35 35 35 35 35 36 36 37 37 37
35 33 33 33 33 32 32 32 32 32 32 32 32 32 31 31 31 31 32 33 34 36 36 36 37 35 30 29 29 30 31 29 28 29 30 31 31 31 33 34 32 31 30 30 30 30 29 29 30 29 29 30 30 30 30 31 32 32 32 33 33 33 32 33 33 33 33 33 33 33 34 35 36 36 36 36 36 36 36 36 37 37 38 38 38 38
37 36 35 34 34 34 34 33 33 33 33 33 33 33 33 33 33 34 34 34 35 37 38 39 42 38 32 31 30 29 30 29 28 31 32 33 33 32 32 33 33 33 31 31 31 31 31 31 31 31 30 30 30 30 31 32 33 33 33 33 34 33 32 32 33 33 34 34 34 35 36 36 37 37 37 37 37 37 38 38 38 39 39 39 40 39
38 37 36 35 35 35 35 35 35 35 35 34 34 34 35 35 35 35 35 36 38 38 38 40 45 43 36 32 31 29 29 28 28 31 33 34 34 33 32 32 33 33 32 31 31 32 33 33 32 32 31 31 31 32 32 32 33 34 34 34 34 34 33 33 34 34 34 34 35 36 36 37 38 38 38 38 38 38 39 39 39 40 40 41 41 41
39 38 38 37 36 36 37 36 36 36 36 36 35 35 35 36 36 36 37 38 40 41 40 41 46 48 42 35 32 31 31 28 27 30 33 33 33 32 32 32 33 33 32 32 32 33 33 34 34 33 32 31 32 32 33 32 33 34 34 35 35 35 34 34 35 35 35 35 36 36 37 38 38 39 39 39 39 39 40 41 41 41 41 42 42 42
41 39 39 38 38 38 38 36 36 37 37 37 36 35 36 36 37 38 38 40 42 43 43 42 44 50 48 39 33 33 32 28 26 29 32 32 31 31 31 32 32 32 33 33 34 34 34 34 34 34 33 33 32 32 32 32 33 34 35 36 36 36 36 36 36 36 36 36 36 37 37 38 38 39 40 40 40 41 41 42 42 42 42 42 42 43
43 42 40 40 40 39 38 37 37 37 38 38 38 37 37 37 38 38 39 41 43 46 46 43 43 49 51 43 37 34 31 28 26 27 29 30 30 31 30 31 31 32 33 33 34 34 35 35 35 35 35 34 34 34 34 33 34 35 36 37 38 38 38 38 38 38 38 38 38 38 38 38 39 40 40 41 41 42 42 42 42 42 42 42 43 43
46 44 42 42 41 40 38 38 38 38 39 39 39 39 38 37 38 38 41 42 46 50 47 43 44 49 52 46 39 34 30 27 25 24 27 28 29 30 30 30 31 31 33 33 34 34 35 36 36 36 36 36 36 36 36 35 36 37 37 38 39 39 39 39 39 40 40 40 40 40 39 40 40 40 41 42 42 43 43 43 42 42 42 42 43 43
48 46 45 44 41 40 39 39 39 39 39 39 39 39 38 38 38 40 43 45 49 52 47 44 45 50 54 46 36 33 29 26 24 23 26 28 28 30 31 31 32 32 33 34 35 35 36 36 37 37 37 37 38 38 38 38 38 39 39 39 40 40 40 40 40 41 41 42 42 41 41 41 41 41 42 43 43 44 44 43 43 43 43 43 44 44
48 47 46 44 42 41 41 41 41 40 40 39 38 37 37 39 41 43 46 47 52 52 47 46 48 52 54 46 37 35 30 28 26 24 26 28 28 30 31 31 32 33 33 34 35 36 36 37 37 38 38 39 39 39 39 39 40 40 39 40 40 40 40 40 41 41 42 43 43 42 42 41 42 42 43 44 44 44 45 44 44 44 44 44 44 45
49 48 46 46 44 43 43 43 42 41 40 38 37 37 39 42 44 47 48 50 53 52 49 49 52 55 53 45 40 37 31 29 30 27 26 27 27 29 31 31 32 32 33 34 35 35 35 36 36 37 38 38 39 39 39 40 40 40 40 40 40 40 40 41 41 41 42 43 43 42 42 42 42 43 44 44 45 45 46 46 45 45 45 45 46 46
50 49 48 47 46 45 45 44 42 41 39 39 38 39 41 43 46 49 50 52 54 54 52 52 54 55 51 44 40 36 31 31 32 31 29 27 27 28 30 31 32 33 34 35 35 35 35 36 36 36 37 37 38 38 38 39 39 39 40 40 40 39 40 41 41 42 42 43 42 42 42 43 43 44 45 45 46 47 47 47 46 46 46 46 47 48
51 51 49 48 47 46 45 44 42 40 39 40 40 42 43 45 47 49 51 54 56 56 55 55 56 54 49 44 40 36 33 32 32 33 32 30 29 28 29 31 32 34 35 35 36 36 36 37 37 37 37 38 38 38 38 38 39 39 39 40 40 40 40 40 41 42 42 43 43 43 43 43 43 44 45 46 47 48 48 48 48 47 47 48 49 51
53 52 50 49 48 47 46 44 43 42 42 42 43 45 47 46 47 49 52 55 57 59 58 57 57 53 47 44 41 38 35 32 31 32 31 32 31 30 29 30 31 32 34 35 35 35 36 37 37 37 38 38 39 38 39 39 39 39 40 40 40 40 40 41 41 42 43 43 43 43 43 43 44 45 46 47 48 49 49 49 49 49 49 51 52 54
53 52 50 49 48 47 46 46 45 45 45 46 47 49 49 47 48 50 54 56 57 60 60 58 55 51 47 43 39 38 37 33 30 30 31 33 33 32 31 31 30 31 32 33 34 35 36 37 37 38 38 38 39 38 38 39 39 39 39 40 40 40 40 40 40 41 42 42 42 43 43 44 45 46 47 48 49 49 49 50 50 51 52 53 55 56
52 52 51 50 49 48 48 48 49 49 49 51 52 51 50 50 52 53 54 56 57 60 61 58 54 50 46 41 37 36 37 34 30 30 31 32 33 33 33 31 30 30 31 33 34 35 35 36 37 37 38 37 37 37 37 37 38 38 39 39 40 40 40 40 41 41 41 41 42 42 43 44 45 46 48 48 49 50 50 51 52 53 54 56 57 59
52 53 53 52 52 52 52 52 53 53 55 56 55 54 52 53 54 54 55 57 58 61 61 57 55 50 44 40 38 37 38 36 33 31 31 31 31 33 33 33 32 31 32 33 34 35 35 35 36 36 36 36 35 35 35 36 36 37 37 38 39 40 41 41 42 41 41 41 42 43 44 45 46 47 48 49 50 51 52 53 54 55 57 58 60 61
54 55 56 56 56 56 56 56 58 58 57 57 55 55 55 56 57 57 57 58 59 61 61 58 55 49 42 40 41 40 40 41 39 33 29 30 32 34 34 34 34 33 34 34 35 36 35 35 35 35 35 35 35 35 34 35 35 36 37 37 38 40 41 42 42 41 42 42 43 44 45 46 47 49 50 51 52 53 54 55 56 57 59 60 61 63
59 60 61 61 61 61 61 61 60 59 57 56 56 57 58 59 60 60 61 61 61 63 62 60 57 50 44 43 44 44 43 44 43 36 29 30 33 34 35 35 36 35 35 36 36 37 37 37 36 36 36 36 36 36 36 36 36 36 36 37 38 39 41 41 42 42 43 44 44 45 46 48 49 51 52 53 53 54 55 56 57 59 60 61 62 62
63 63 63 64 65 65 63 62 61 60 60 60 61 62 62 62 62 63 64 64 63 62 60 60 59 51 46 46 45 46 47 46 44 36 30 32 34 34 36 36 37 36 36 37 38 38 38 39 39 39 39 38 38 38 38 38 38 37 37 38 39 40 41 42 43 44 44 45 46 47 48 50 51 52 52 53 54 55 56 57 58 60 61 62 62 63
62 62 63 65 67 67 66 65 65 65 65 65 66 66 65 66 66 66 66 63 61 60 57 60 61 50 45 47 45 47 51 47 43 37 32 33 34 35 36 36 37 37 37 37 38 39 40 40 41 42 41 41 40 40 40 39 39 39 39 40 40 41 42 43 44 45 46 47 47 49 50 51 51 52 52 53 54 55 56 58 59 60 61 62 63 64
64 64 66 67 69 69 69 69 69 69 69 69 70 69 67 66 64 62 61 59 59 60 58 62 63 51 46 49 48 50 52 48 44 41 37 37 37 37 38 38 39 39 38 39 41 42 42 42 42 43 42 42 41 40 40 40 40 40 40 41 42 42 43 44 45 47 48 48 48 49 50 50 50 51 52 53 54 56 57 58 60 61 62 64 65 66
62 62 62 63 65 67 70 71 73 73 73 72 70 68 65 62 60 58 57 57 59 61 60 63 62 53 50 52 50 50 51 49 47 44 39 39 40 40 40 40 41 41 41 42 43 43 44 44 43 42 41 42 41 40 40 40 40 41 42 42 43 43 44 45 47 48 48 49 49 50 50 50 51 52 53 54 55 57 58 60 62 63 64 65 65 65
61 60 58 59 62 65 68 70 71 69 67 65 62 60 58 56 55 53 52 54 58 61 62 63 60 53 52 53 51 49 49 50 51 49 45 43 41 39 40 42 43 44 45 44 44 44 44 45 44 42 42 41 41 39 39 40 41 42 43 43 44 44 46 47 48 49 50 50 51 51 51 52 53 54 54 56 57 59 61 63 64 64 64 63 64 64
62 62 60 60 61 63 63 62 62 61 59 58 56 55 54 52 50 48 49 54 58 61 62 61 58 55 54 52 51 51 51 52 54 56 53 48 44 41 42 44 46 47 46 45 44 44 44 44 44 44 44 43 41 40 39 39 40 42 43 44 45 46 47 49 50 51 51 52 52 52 52 53 54 56 57 59 61 63 63 63 63 62 61 62 63 64
60 61 62 62 63 62 59 57 58 59 59 58 56 55 54 53 51 52 55 57 58 60 61 56 56 57 54 51 52 53 53 53 55 57 54 49 47 46 45 45 47 47 47 46 46 45 45 45 45 46 46 45 43 41 39 38 39 41 43 45 46 48 49 50 50 51 52 52 53 53 54 56 57 59 60 61 62 62 61 59 60 61 62 63 64 65
60 60 60 61 63 63 60 59 59 59 59 58 57 57 56 56 56 57 59 59 59 62 61 56 59 61 54 52 53 52 53 55 54 53 53 51 51 51 49 49 50 50 50 51 50 48 47 46 46 46 46 45 45 43 41 40 40 41 43 45 47 49 51 52 52 52 53 54 55 56 57 59 60 60 61 61 61 60 59 58 59 62 65 66 66 66
59 59 58 58 60 61 60 60 60 60 61 62 61 61 60 59 60 61 62 61 62 65 63 59 64 63 55 54 55 53 53 54 53 53 54 55 55 54 55 56 56 56 57 56 54 50 48 47 46 46 46 46 47 46 45 44 43 43 44 46 48 50 52 54 54 55 56 57 57 58 59 59 60 60 61 61 60 60 60 60 60 63 65 67 68 68
57 57 55 55 58 58 57 59 61 61 62 63 63 63 62 62 62 63 63 63 65 67 64 63 66 63 56 55 55 53 53 54 54 55 55 54 54 56 58 59 59 60 60 59 56 52 49 48 48 48 48 48 48 49 48 47 46 46 46 47 48 51 53 55 56 56 57 57 58 59 60 60 61 61 61 61 60 61 62 62 62 63 64 65 68 70
55 56 53 53 56 56 52 55 60 59 60 63 64 63 63 62 63 64 63 63 65 65 63 64 66 61 56 56 56 55 55 55 55 54 53 54 54 55 57 57 58 59 58 57 56 54 53 51 50 50 50 50 50 50 50 49 49 49 49 49 50 51 53 54 56 57 57 58 59 60 61 61 62 62 61 61 61 62 62 63 62 62 63 65 69 73
53 54 52 52 54 51 47 52 56 55 58 63 62 59 59 59 61 61 61 60 60 61 62 64 64 59 57 59 60 59 57 55 54 55 55 55 54 54 55 55 55 55 55 54 54 54 54 53 52 52 51 52 52 52 52 52 52 50 49 49 50 51 52 53 55 56 57 58 60 61 61 62 62 61 62 63 63 62 61 61 62 64 67 69 72 74
54 54 52 51 50 47 44 48 52 54 59 59 55 53 54 57 58 59 58 58 58 59 61 62 60 57 57 59 61 61 58 56 57 57 56 56 55 54 54 53 52 52 52 53 54 54 55 54 54 54 54 54 54 53 54 53 51 49 47 48 48 49 51 52 53 54 56 57 59 60 61 61 61 61 62 62 60 58 58 62 67 70 72 72 73 74
54 54 54 53 52 49 46 47 53 58 58 53 49 50 52 53 54 55 55 56 56 58 59 59 57 55 55 56 58 59 59 58 58 58 57 57 56 55 54 52 52 52 52 53 54 54 55 55 56 57 57 56 55 54 53 52 50 48 48 48 49 50 51 53 54 55 56 57 58 59 59 60 60 60 59 58 59 61 63 66 69 70 72 73 75 76
53 52 53 52 52 51 50 50 54 56 53 49 48 49 50 51 52 52 54 53 53 54 56 56 54 53 54 55 55 55 56 58 58 58 59 58 56 55 55 55 55 55 55 55 56 56 58 58 59 59 58 57 55 53 52 51 51 50 50 50 51 52 54 55 56 57 57 58 58 58 58 58 57 56 55 57 61 63 64 66 69 71 74 76 77 76
53 52 51 52 52 51 52 55 54 53 52 50 48 47 48 51 52 53 55 54 51 51 53 54 54 53 53 52 51 51 53 57 60 59 57 56 55 56 58 58 57 57 57 57 58 58 59 59 58 57 56 55 53 52 51 51 52 52 52 53 54 55 56 57 58 58 58 57 57 56 56 55 55 54 54 56 58 60 63 68 73 76 78 78 77 77
58 54 52 55 56 54 56 58 58 59 58 52 48 48 49 51 51 53 56 55 50 47 50 53 53 52 49 47 46 47 50 56 59 55 51 50 52 54 55 55 55 55 55 55 55 55 55 55 54 54 53 53 53 52 52 52 53 54 55 55 56 56 57 58 58 58 58 57 57 56 55 54 53 54 54 56 59 63 68 73 77 79 79 78 78 79
64 59 54 56 58 57 59 60 61 63 59 50 47 51 52 52 53 53 56 55 49 46 50 52 50 48 45 44 45 47 50 53 53 49 48 50 51 51 51 51 51 52 52 52 51 52 52 53 53 54 54 54 54 53 53 54 55 56 56 57 57 57 57 58 59 59 59 59 58 56 54 53 53 54 57 61 66 70 74 77 78 78 78 77 78 77
64 61 59 59 59 58 60 61 62 62 55 48 49 53 52 53 53 54 57 55 48 46 49 49 46 45 46 47 49 49 50 51 49 47 49 50 50 50 51 51 51 52 52 52 52 53 54 54 54 54 54 54 55 55 56 56 57 58 58 58 57 57 57 59 60 61 61 60 59 57 55 54 55 58 62 66 70 73 75 76 76 76 76 77 78 78
59 59 60 61 60 60 61 62 63 62 54 49 51 54 54 55 57 58 58 53 47 46 47 47 47 48 49 50 49 48 49 49 48 48 49 50 50 51 52 52 52 52 53 53 53 54 54 55 55 55 56 56 57 58 58 59 59 59 59 59 59 59 59 61 62 62 61 60 58 57 56 56 58 61 65 70 73 75 76 76 77 78 80 81 82 82
57 58 61 61 61 63 64 63 64 63 56 52 54 57 58 59 61 59 54 49 47 48 49 50 51 50 49 49 48 47 48 48 48 48 48 49 49 50 50 51 51 51 52 52 53 53 54 54 55 56 56 57 58 58 59 59 59 59 60 60 61 61 61 61 61 60 59 58 57 57 57 58 61 65 69 73 77 78 79 80 81 83 84 85 85 83
62 60 61 62 61 63 64 64 66 64 57 54 58 60 60 60 59 56 52 50 50 51 52 53 53 51 50 50 49 48 48 48 47 47 47 47 47 47 48 48 49 49 50 51 51 52 53 53 54 55 56 56 57 58 58 59 59 59 60 60 61 61 61 60 60 59 59 58 58 57 58 61 64 68 71 75 78 80 81 82 83 85 85 84 81 77
67 64 63 61 61 64 67 68 67 64 58 57 59 58 56 56 55 53 53 53 54 54 53 53 53 52 51 50 49 48 48 47 47 46 45 45 45 46 47 48 49 50 51 52 53 53 54 54 54 55 56 56 57 58 58 58 57 58 59 60 60 61 61 62 61 61 60 59 58 59 61 64 68 71 73 75 78 80 81 83 83 83 80 77 75 73
68 67 65 62 61 63 65 65 63 61 58 59 59 57 55 55 55 54 54 53 54 55 54 52 52 51 51 50 49 48 47 47 46 46 46 47 47 48 50 51 52 53 54 54 55 55 55 56 56 56 57 57 58 58 58 58 58 59 61 62 62 63 63 63 62 61 59 59 60 61 64 67 70 72 75 78 80 81 81 80 79 77 75 74 73 73
71 70 69 67 67 66 64 62 60 57 56 57 58 57 56 55 55 55 55 55 55 55 53 52 51 51 51 50 50 49 48 48 49 49 50 52 52 53 54 55 56 57 58 59 59 59 59 59 59 59 59 59 59 60 60 61 62 63 63 64 64 64 63 62 61 59 59 59 61 64 67 70 72 75 77 79 80 79 77 76 74 74 73 73 73 72
70 71 71 71 72 71 68 64 60 57 55 54 54 54 54 55 55 55 55 55 54 54 53 53 52 52 52 53 53 54 55 55 55 56 57 57 58 59 60 61 61 62 62 63 63 62 62 61 61 61 61 61 62 63 63 64 64 64 64 64 64 63 62 61 59 59 59 61 63 65 69 72 74 76 76 76 76 75 74 74 73 73 73 73 74 74
63 63 65 68 70 71 70 66 61 59 57 55 54 54 54 54 55 54 54 54 53 53 54 54 54 55 56 58 59 60 61 61 62 62 63 63 64 65 65 65 65 64 64 64 64 63 63 62 62 62 62 63 63 63 63 63 63 63 62 61 61 60 59 58 58 59 60 63 66 68 71 73 74 75 75 75 75 74 74 74 74 74 75 75 76 76
59 60 60 61 63 66 67 65 62 60 58 56 55 55 55 55 55 55 55 56 56 56 56 57 58 59 59 60 61 62 63 63 64 64 65 65 66 66 67 67 67 67 66 66 65 65 65 64 64 64 63 63 63 62 62 62 61 61 60 59 58 57 57 58 59 61 63 66 68 70 72 73 74 74 74 74 74 74 74 74 75 75 76 76 77 77
54 56 57 58 60 61 62 61 59 57 55 54 54 55 56 58 59 59 60 60 59 60 59 59 59 59 59 60 61 62 63 64 64 65 65 66 66 67 68 68 68 67 67 66 66 65 65 65 65 65 64 63 62 62 61 60 60 59 59 58 58 57 58 59 61 62 64 66 67 69 70 70 71 71 71 72 73 73 74 74 75 75 76 76 76 76
56 52 51 52 55 55 55 55 55 55 54 53 53 53 54 55 56 57 57 58 59 59 59 60 60 61 62 63 64 64 65 65 66 66 66 66 66 66 66 66 66 66 66 65 65 65 65 65 64 63 62 61 60 60 59 59 59 59 59 59 60 60 61 62 62 63 64 65 66 67 68 68 69 70 70 71 72 73 74 74 75 75 75 75 75 75
Wind_Direction
242 244 246 248 250 252 255 258 262 264 266 268 271 273 275 276 279 279 278 279 280 279 281 283 282 282 283 286 289 291 294 296 293 287 284 283 282 280 277 274 272 268 266 267 270 272 271 271 270 269 268 269 270 271 272 273 273 274 273 273 272 272 272 272 272 274 275 275 274 272 271 271 271 272 273 274 275 275 274 273 272 270 270 269 269 268
244 246 247 249 251 254 258 260 262 265 267 269 272 274 275 277 278 279 280 282 282 282 283 284 281 281 283 282 285 289 292 294 291 287 283 279 277 276 276 273 269 266 265 266 268 269 270 270 270 269 268 268 268 269 270 272 273 274 275 274 273 273 273 272 271 272 274 275 274 273 271 270 270 270 271 272 273 274 274 273 272 270 269 268 268 268
246 247 248 250 253 257 259 261 262 265 267 270 272 273 275 277 278 279 281 282 284 285 285 285 282 281 283 284 286 289 290 292 291 287 283 278 276 275 273 271 269 268 267 266 265 266 267 268 269 269 267 265 265 267 270 271 272 274 275 275 275 275 274 273 272 272 272 273 273 272 271 269 268 269 269 270 272 273 273 273 272 270 269 268 268 269
247 248 249 252 255 257 259 261 263 265 267 269 270 273 275 278 279 279 280 282 285 286 286 287 284 282 285 287 290 292 291 291 290 286 282 279 277 275 272 271 270 269 267 266 266 268 269 271 272 271 269 268 267 267 268 269 271 273 274 275 276 276 275 274 274 272 272 273 273 272 271 269 268 268 268 269 270 271 272 272 271 270 269 269 269 270
248 249 251 254 256 257 260 262 264 265 266 268 270 273 276 278 279 280 282 283 284 285 288 290 286 281 285 290 292 295 293 291 289 285 282 279 277 275 273 272 270 269 267 267 267 269 270 271 272 272 272 271 270 269 268 269 271 273 274 275 276 276 275 274 273 272 272 272 272 272 271 270 269 268 268 268 269 270 271 271 270 270 269 270 270 271
249 251 252 254 256 259 261 262 264 266 267 269 271 274 276 278 279 281 282 283 284 286 288 291 288 283 284 288 292 294 291 289 287 284 281 279 277 276 274 272 269 268 268 267 266 267 269 271 272 273 273 271 270 269 269 269 270 272 273 274 275 275 274 273 272 272 272 272 271 271 270 269 269 268 268 267 268 268 269 269 269 269 269 270 270 271
250 252 253 254 256 258 261 263 266 268 269 270 272 275 277 278 280 281 282 284 285 286 287 288 288 286 283 285 291 292 288 286 286 283 280 279 278 277 275 272 270 268 267 267 266 266 267 269 271 272 272 270 269 269 269 269 270 271 272 272 273 274 274 273 272 272 272 271 270 270 269 268 267 267 266 266 266 266 266 267 267 267 268 269 270 272
251 252 253 255 257 259 262 265 266 268 270 272 273 275 276 277 279 281 283 285 285 285 285 285 289 288 283 282 288 289 288 288 285 282 281 281 280 277 274 272 270 269 268 268 268 268 269 270 271 272 271 270 269 268 268 269 269 270 271 272 273 273 273 273 272 272 271 270 269 269 268 266 266 265 264 264 264 264 264 265 265 266 267 269 270 271
252 252 254 256 258 261 263 265 266 269 271 273 273 274 275 277 278 281 283 284 284 283 282 284 291 290 284 282 286 287 290 292 285 279 278 279 278 276 273 272 270 269 268 268 268 269 271 272 273 273 273 273 272 271 270 269 270 271 271 272 272 273 273 272 272 271 270 269 268 268 267 266 264 264 263 263 263 263 263 264 265 266 267 268 270 271
253 255 256 257 260 263 264 265 267 269 271 272 273 273 275 276 278 281 281 282 283 281 282 287 293 292 285 281 285 289 293 294 289 280 275 273 273 273 273 273 271 270 270 270 270 270 271 272 273 274 275 275 274 273 273 272 272 272 272 272 272 273 273 272 271 270 269 268 268 267 266 265 264 263 263 262 262 263 263 263 264 265 266 268 270 272
256 257 258 259 261 263 264 266 267 268 269 270 271 273 275 277 278 279 279 280 281 280 284 290 293 291 284 280 285 290 292 293 290 282 274 272 271 271 272 272 272 271 270 271 271 271 272 272 273 274 274 275 274 274 274 273 272 272 272 272 272 272 272 271 270 269 268 267 267 266 265 264 263 263 262 262 263 263 263 264 264 265 267 269 271 272
257 258 259 260 261 262 263 264 265 266 268 269 271 273 276 276 276 277 278 279 281 282 287 289 288 286 282 281 287 289 289 291 289 281 275 274 273 273 273 273 272 271 270 270 270 271 272 272 273 274 274 274 275 275 275 274 273 273 273 273 273 273 271 270 269 268 267 266 266 265 264 263 263 262 263 263 263 264 264 264 265 266 268 270 272 273
256 257 258 259 260 261 262 264 265 267 269 270 271 272 274 275 276 277 278 279 281 283 286 286 285 282 279 281 285 286 287 288 287 283 278 276 274 273 273 274 274 274 273 273 272 271 271 272 272 272 273 274 274 275 275 275 275 274 274 273 273 272 271 270 269 268 267 266 266 264 264 263 262 263 263 263 264 264 264 265 265 267 269 271 272 274
255 256 258 260 262 264 265 266 267 268 268 268 268 269 271 273 275 277 279 281 281 283 283 283 282 280 279 281 283 284 284 283 283 283 281 278 274 271 270 271 272 272 272 272 273 273 273 273 273 273 273 273 274 274 275 275 275 275 274 273 272 272 271 270 269 267 266 266 265 264 263 262 262 263 263 264 264 264 265 265 266 268 270 272 273 275
257 258 259 262 263 265 266 266 267 266 266 266 267 268 269 272 275 278 279 280 280 281 281 281 280 279 279 281 282 282 280 279 279 281 282 281 276 273 270 269 270 270 270 271 272 273 273 274 274 274 275 275 275 276 276 276 275 274 273 272 272 271 270 269 268 267 266 264 263 262 262 262 263 263 264 264 265 265 266 267 268 270 272 273 274 276
258 259 260 262 263 264 265 265 265 265 265 266 266 267 270 273 275 276 277 278 279 281 280 279 279 278 279 280 280 280 278 277 277 278 280 281 280 279 276 273 272 272 272 273 272 272 272 273 273 274 275 276 276 277 277 277 276 275 274 274 272 271 270 269 268 267 265 264 263 262 262 263 263 264 265 265 266 267 267 269 270 272 273 274 276 277
259 259 260 261 262 262 263 264 264 265 265 266 267 269 272 273 272 273 275 277 279 280 279 278 277 276 276 275 276 279 280 279 278 277 278 279 280 281 280 277 276 274 274 274 273 272 272 272 272 273 274 274 275 276 277 277 277 277 277 277 275 274 272 270 268 267 265 264 263 262 262 263 264 265 265 266 267 268 269 271 272 273 274 275 277 279
259 260 260 260 261 262 262 263 263 264 265 267 268 269 270 270 270 272 275 277 278 279 278 276 274 272 272 272 275 280 282 281 279 277 276 276 278 280 280 278 276 274 274 273 273 273 273 273 272 272 272 273 273 275 276 276 277 278 279 279 278 276 274 271 269 267 265 263 262 261 262 263 263 264 265 266 268 269 270 271 272 274 275 277 278 280
258 260 260 259 260 261 261 261 262 264 265 266 267 268 268 269 271 273 274 276 277 278 276 273 270 269 268 271 277 281 282 281 279 276 275 275 276 277 276 276 275 274 274 274 274 275 275 274 273 272 272 272 273 274 275 276 277 278 279 279 278 276 274 271 269 267 264 262 261 261 261 262 263 264 265 267 268 269 271 272 273 275 276 278 279 281
257 258 258 258 259 259 259 260 261 263 264 265 266 267 268 270 271 271 273 274 275 276 276 272 268 267 268 273 278 280 279 279 277 274 274 274 274 274 273 274 275 275 275 276 276 277 276 275 274 273 272 272 273 275 276 278 278 278 278 277 276 274 272 270 268 265 263 261 260 260 260 262 263 264 266 267 269 271 272 274 276 277 278 279 280 281
255 255 256 257 257 257 258 260 262 263 263 264 265 266 267 269 270 271 271 272 273 274 275 274 270 268 271 274 276 277 275 272 272 273 273 271 270 271 272 273 274 276 277 277 276 276 276 276 275 275 274 273 274 276 278 279 279 279 279 277 275 273 271 268 265 264 263 261 260 261 261 262 263 265 267 269 271 273 275 277 278 279 279 280 281 282
256 257 257 257 257 258 259 260 261 261 261 262 262 264 265 266 267 268 269 271 273 274 275 277 273 268 269 273 275 276 274 271 272 273 272 270 268 268 269 270 272 274 275 275 274 274 274 274 276 276 276 276 276 278 279 279 280 279 278 276 274 272 270 268 266 264 263 262 262 262 263 264 265 268 270 272 274 276 277 278 279 279 280 281 283 284
257 257 257 257 257 257 257 257 258 258 259 260 261 263 264 265 265 267 270 273 274 274 273 274 271 266 268 274 274 274 275 275 276 275 273 272 269 267 266 268 270 271 271 271 272 272 272 273 275 276 277 278 278 278 278 278 278 278 277 275 274 272 270 269 268 266 264 264 263 264 265 267 269 271 273 274 275 276 277 278 279 280 281 282 284 285
255 255 256 256 256 256 256 256 257 258 259 260 261 263 264 265 267 268 270 271 270 269 269 270 269 267 269 273 273 274 276 277 276 275 275 275 271 268 267 267 268 269 269 271 271 272 273 273 274 276 277 279 279 278 277 277 277 276 275 275 273 272 271 270 269 268 268 268 268 268 270 271 272 273 274 275 276 277 278 279 280 281 282 283 285 286
255 256 256 257 257 256 256 256 256 257 259 261 263 264 266 267 267 267 268 268 267 267 267 268 268 268 271 273 274 275 277 277 276 275 276 275 271 270 270 269 269 269 269 271 272 274 275 276 276 277 278 280 281 281 280 278 277 276 275 274 273 272 271 270 270 270 270 271 271 272 272 273 273 274 275 275 276 277 278 279 281 282 284 285 285 285
255 256 255 255 255 255 255 257 258 260 262 264 265 265 266 265 265 265 264 263 263 264 264 266 268 271 273 273 274 275 276 277 279 279 278 275 273 272 271 271 270 269 269 270 271 273 274 276 277 278 279 280 282 283 282 280 278 277 276 274 273 271 269 269 269 269 270 271 271 272 272 273 273 274 275 275 276 278 279 281 282 283 284 285 285 285
254 253 252 253 254 256 257 259 260 260 260 261 261 261 260 259 259 258 256 257 262 264 264 266 269 271 271 271 273 274 274 276 278 279 280 281 281 277 273 271 270 270 270 271 270 271 272 274 276 276 278 279 280 281 281 280 279 278 277 275 273 271 270 269 269 270 270 271 271 272 272 272 273 274 275 276 278 279 281 282 283 283 284 285 286 286
252 252 252 253 255 256 257 258 257 256 256 257 257 257 256 256 256 255 256 260 263 263 263 267 268 268 268 269 269 271 272 274 275 277 281 284 284 280 275 272 271 271 272 271 270 271 272 274 275 275 276 277 277 278 278 278 278 278 277 275 274 273 271 270 271 271 271 272 272 272 272 273 274 275 276 278 279 280 281 282 283 284 285 286 288 288
251 252 253 255 256 256 256 255 255 255 256 256 255 254 254 254 255 256 259 262 261 261 264 267 266 265 266 267 267 268 270 272 273 276 278 278 277 277 276 275 274 274 273 272 273 273 275 276 276 275 274 274 274 274 274 275 276 276 276 275 274 273 272 271 271 271 272 272 272 272 272 273 274 276 277 279 280 281 283 284 284 284 285 287 290 291
252 254 255 257 258 257 256 254 254 254 254 254 254 254 254 254 256 258 260 261 261 261 263 264 264 266 267 268 269 270 270 271 271 271 271 272 273 274 274 274 274 274 274 275 276 277 277 277 275 273 272 272 272 273 273 274 275 275 275 275 274 273 271 270 270 270 271 271 271 271 272 273 274 276 278 280 282 284 286 286 285 284 285 287 291 293
253 255 257 259 259 257 255 253 252 252 253 254 254 254 255 256 258 259 259 259 259 261 263 263 265 266 268 270 272 272 270 269 269 269 269 270 270 271 271 272 272 273 274 276 277 278 278 276 274 273 272 272 273 275 276 277 277 277 277 276 275 273 271 270 270 270 270 270 270 271 272 273 275 278 280 281 284 286 286 287 286 284 285 287 290 292
254 255 257 258 257 256 254 252 251 251 253 253 252 253 255 257 259 259 259 259 260 262 264 263 264 265 267 269 270 270 269 269 270 271 271 270 269 269 270 272 272 273 274 275 277 278 277 276 274 274 274 275 276 278 279 280 281 281 281 280 277 275 273 272 272 272 272 272 272 272 274 275 277 279 281 283 285 286 286 287 288 288 287 286 285 287
254 254 255 254 253 254 251 248 249 250 249 249 250 254 257 259 259 258 258 259 261 263 263 262 262 264 264 265 267 268 270 270 270 270 270 270 271 272 273 274 274 274 274 274 275 275 275 276 276 276 277 278 279 281 283 284 285 285 285 283 281 279 277 275 274 273 273 273 274 275 276 277 278 280 282 284 285 286 286 287 288 286 284 282 283 287
254 254 253 251 251 250 246 246 248 246 245 248 253 256 256 255 255 256 256 256 257 259 260 261 262 262 263 264 266 268 268 268 267 268 269 271 272 273 275 276 276 276 275 274 273 273 274 276 277 278 279 281 282 284 285 286 287 287 286 285 283 282 280 279 278 277 277 277 277 277 278 279 280 281 283 284 284 284 283 282 282 281 281 282 285 288
252 253 252 250 251 250 247 246 245 245 248 253 254 252 251 252 254 255 254 253 254 257 259 261 262 263 263 263 264 264 265 265 266 267 269 270 271 273 274 276 276 275 274 273 273 274 275 276 278 279 281 282 284 285 286 286 286 286 286 285 284 284 283 282 282 281 281 281 281 281 281 281 281 281 281 282 281 280 279 279 280 282 283 284 285 284
249 251 251 250 249 248 246 242 242 248 253 251 247 248 252 253 253 254 254 254 256 260 262 263 263 262 261 260 261 262 264 264 264 265 268 270 271 272 272 273 272 272 272 273 274 275 276 277 278 280 281 282 283 284 285 285 285 285 285 285 285 285 284 284 283 283 283 283 283 282 281 280 279 278 277 277 277 278 279 281 282 282 282 282 283 283
249 250 250 247 244 242 243 244 245 249 249 247 248 251 254 254 254 256 257 258 258 260 262 263 262 261 260 261 262 263 264 263 263 264 267 269 270 270 270 271 271 272 272 273 273 274 275 276 277 278 279 280 281 282 282 282 283 283 284 284 284 284 283 283 283 283 283 283 282 281 280 279 278 277 276 277 279 280 281 281 280 280 281 283 283 284
251 250 248 245 243 242 243 245 246 245 247 252 256 256 255 255 256 256 256 256 258 261 262 262 261 260 261 262 261 262 262 263 263 264 265 267 268 268 270 271 271 271 271 271 272 273 273 275 276 278 279 280 280 280 280 280 281 282 282 282 282 281 281 281 281 281 281 281 280 280 279 278 278 279 281 282 281 280 279 279 280 281 282 283 283 283
251 248 245 243 244 244 245 247 246 246 249 254 255 253 252 252 254 254 253 256 261 262 259 259 260 261 261 260 259 259 260 262 264 264 264 265 266 267 268 269 269 269 269 270 271 272 273 275 277 278 279 280 280 280 280 280 280 280 279 279 279 279 279 279 279 280 280 281 281 281 281 280 281 282 282 280 279 278 278 279 280 281 281 282 282 282
248 245 242 242 244 245 245 247 246 246 249 251 250 249 248 248 249 249 251 258 264 261 256 258 260 259 257 256 256 258 260 263 264 263 264 265 266 266 267 267 268 269 270 271 271 273 274 276 278 279 279 279 280 280 279 279 278 278 278 277 277 277 277 278 278 279 280 281 282 282 282 282 282 280 279 278 278 278 278 278 279 279 280 282 282 283
245 245 243 245 248 248 247 248 248 248 250 251 250 248 246 245 244 246 251 260 262 257 256 258 257 254 253 254 257 260 263 265 266 265 265 266 266 267 268 269 270 271 272 273 274 275 276 277 278 278 279 279 280 280 280 280 279 279 278 278 278 278 278 278 279 280 280 281 280 280 280 279 278 277 276 276 276 275 276 277 279 280 282 283 283 282
244 246 247 247 249 250 250 251 251 250 252 253 251 248 246 246 247 250 254 258 255 253 254 255 254 254 254 256 259 263 264 266 267 266 266 266 266 267 268 270 271 272 273 274 275 276 276 277 278 278 279 279 280 280 280 280 280 280 280 280 280 281 281 280 279 279 279 278 277 276 276 275 274 274 274 274 274 275 276 278 279 280 281 280 280 280
245 248 250 250 249 250 250 250 251 253 256 256 252 249 249 251 253 254 255 253 252 252 252 253 254 256 258 259 262 264 264 265 265 265 265 265 266 267 269 270 272 273 274 275 276 277 278 278 278 279 279 280 280 280 280 280 280 280 281 281 282 281 281 279 278 277 276 276 275 274 272 272 272 272 273 273 274 275 276 276 277 277 277 277 279 281
247 248 250 251 251 250 250 251 254 257 257 254 251 250 251 253 253 252 252 252 253 253 253 254 256 257 259 262 263 264 265 265 264 264 265 266 267 269 270 272 273 275 276 278 278 279 279 279 279 279 280 280 280 279 279 278 279 280 280 280 280 279 278 277 276 275 274 274 273 272 270 270 270 271 272 272 273 273 273 273 274 275 277 279 282 285
247 249 251 252 252 252 252 253 254 255 253 250 249 248 249 249 249 249 251 253 254 254 254 254 255 257 260 263 265 266 267 267 266 267 267 269 271 273 274 276 277 278 279 280 280 281 281 280 280 280 280 280 279 278 277 277 277 278 278 277 276 275 275 274 274 273 272 271 270 270 269 269 270 271 272 271 271 272 272 273 276 278 281 284 286 287
249 251 252 252 253 253 252 251 251 250 249 247 247 247 247 249 250 250 251 253 254 254 253 254 257 260 263 265 267 268 269 269 270 271 272 274 276 277 278 280 281 282 282 282 282 282 281 280 280 279 279 278 277 276 276 275 276 276 276 275 274 273 272 272 272 271 271 270 269 269 270 270 270 270 270 270 271 272 275 278 281 284 286 287 288 288
248 249 249 249 249 250 251 251 250 248 247 247 247 247 247 249 250 250 252 254 255 255 255 257 261 263 265 268 270 271 272 273 273 273 274 275 277 279 281 283 283 283 283 282 282 281 280 279 279 278 277 276 276 275 275 275 275 275 274 273 273 272 273 273 273 272 272 271 270 269 269 269 269 269 270 272 275 278 281 283 286 287 287 288 288 288
240 241 242 243 244 246 247 248 247 246 247 248 248 248 249 250 251 252 253 254 255 256 258 261 263 266 268 271 272 273 274 274 274 275 276 277 279 282 283 284 284 284 283 282 282 281 280 280 279 278 276 275 275 275 275 274 275 275 275 275 275 276 276 276 275 273 272 270 269 269 269 269 271 273 275 277 280 283 285 286 287 287 287 287 286 286
234 235 237 239 240 242 243 244 245 246 248 250 250 251 252 253 253 254 255 256 258 260 262 264 266 268 270 271 272 273 274 274 276 277 279 281 283 284 285 285 284 283 282 282 281 281 280 279 278 277 276 275 275 276 276 277 277 278 279 279 279 279 278 275 273 272 270 269 269 270 271 272 274 277 279 281 283 284 285 285 285 285 285 285 285 285
235 235 236 238 240 241 241 242 244 246 248 249 250 252 254 255 257 258 259 261 262 263 265 266 267 269 270 271 273 274 276 278 280 281 282 283 284 284 283 283 282 282 281 280 280 279 278 278 277 277 277 277 278 279 279 280 281 281 281 281 280 279 277 275 273 272 272 272 273 274 275 277 278 280 281 282 282 283 283 283 283 284 284 284 285 285
240 239 238 239 239 240 240 241 242 244 245 247 249 252 254 256 258 260 261 262 264 266 268 270 272 273 274 275 277 278 279 280 281 281 281 281 281 280 280 279 279 279 279 278 278 277 277 277 277 278 278 279 280 281 281 281 281 281 280 280 279 278 277 276 276 276 277 277 278 279 280 280 281 281 281 281 281 282 282 283 283 284 284 284 285 285
Height
5843 5844 5846 5847 5847 5847 5847 5849 5850 5850 5850 5850 5850 5851 5851 5852 5852 5851 5850 5850 5850 5850 5851 5851 5850 5852 5854 5853 5851 5848 5849 5850 5850 5849 5848 5847 5846 5845 5845 5845 5845 5844 5844 5844 5844 5844 5844 5844 5845 5845 5845 5846 5846 5846 5846 5846 5846 5846 5846 5846 5845 5845 5845 5845 5845 5844 5844 5844 5844 5844 5844 5844 5844 5844 5844 5844 5844 5844 5843 5843 5843 5842 5842 5841 5841 5840
5840 5842 5844 5843 5843 5844 5845 5846 5847 5847 5847 5847 5847 5847 5848 5848 5848 5848 5847 5847 5846 5846 5847 5847 5846 5848 5851 5851 5850 5848 5847 5847 5847 5846 5846 5844 5843 5842 5842 5842 5841 5840 5841 5841 5841 5841 5842 5841 5841 5842 5842 5842 5842 5842 5842 5842 5842 5842 5842 5842 5842 5842 5842 5842 5842 5842 5841 5841 5841 5841 5841 5841 5841 5840 5840 5840 5840 5840 5840 5839 5839 5838 5838 5837 5837 5836
5837 5839 5840 5839 5840 5842 5842 5843 5844 5844 5844 5844 5844 5844 5844 5845 5844 5844 5844 5843 5842 5842 5843 5843 5842 5844 5847 5847 5847 5846 5844 5844 5843 5843 5842 5840 5839 5839 5838 5838 5837 5837 5838 5838 5838 5838 5838 5838 5838 5839 5839 5839 5839 5839 5839 5839 5839 5839 5838 5838 5838 5838 5838 5838 5838 5839 5838 5838 5838 5837 5837 5837 5837 5837 5837 5836 5836 5836 5836 5835 5835 5834 5834 5833 5832 5832
5834 5835 5836 5836 5837 5838 5838 5839 5840 5841 5841 5841 5840 5841 5841 5841 5840 5841 5840 5839 5839 5838 5838 5838 5837 5839 5843 5843 5844 5843 5841 5842 5840 5839 5838 5836 5836 5836 5834 5834 5834 5834 5834 5834 5834 5834 5834 5834 5834 5835 5835 5835 5835 5836 5836 5835 5835 5835 5835 5835 5834 5835 5835 5835 5835 5835 5835 5834 5834 5834 5833 5833 5833 5833 5833 5833 5832 5832 5832 5831 5831 5830 5830 5829 5828 5827
5830 5831 5832 5833 5834 5834 5835 5836 5837 5837 5837 5837 5837 5837 5837 5837 5836 5837 5837 5836 5835 5834 5834 5833 5830 5833 5839 5840 5840 5840 5838 5838 5837 5835 5833 5832 5832 5832 5831 5831 5831 5830 5831 5831 5831 5831 5830 5830 5830 5831 5831 5831 5832 5832 5832 5831 5831 5831 5831 5831 5831 5831 5831 5831 5831 5831 5831 5830 5830 5830 5830 5829 5829 5829 5829 5828 5828 5828 5828 5827 5827 5826 5825 5824 5824 5823
5827 5828 5829 5830 5830 5831 5831 5832 5833 5832 5833 5834 5834 5834 5833 5833 5833 5833 5832 5831 5831 5831 5831 5830 5824 5825 5834 5837 5837 5838 5836 5835 5834 5831 5829 5828 5828 5828 5828 5828 5827 5827 5827 5828 5828 5827 5827 5827 5827 5827 5828 5828 5828 5827 5827 5828 5827 5827 5827 5827 5827 5827 5827 5827 5827 5826 5827 5826 5826 5826 5825 5825 5825 5825 5825 5824 5824 5824 5823 5823 5822 5821 5821 5820 5819 5818
5823 5824 5825 5826 5826 5827 5828 5829 5829 5828 5829 5830 5831 5831 5829 5829 5829 5829 5828 5827 5827 5827 5827 5827 5822 5819 5825 5832 5834 5834 5833 5833 5832 5827 5825 5825 5825 5825 5824 5824 5823 5823 5824 5824 5824 5824 5823 5823 5823 5823 5824 5824 5824 5823 5823 5824 5824 5823 5823 5823 5823 5823 5823 5823 5822 5822 5822 5822 5822 5821 5821 5821 5821 5821 5820 5820 5820 5819 5819 5818 5818 5817 5816 5816 5815 5814
5819 5819 5820 5822 5822 5823 5825 5825 5825 5824 5825 5826 5827 5826 5825 5826 5825 5825 5825 5823 5823 5822 5822 5824 5822 5815 5816 5826 5831 5830 5830 5830 5828 5824 5822 5821 5821 5821 5820 5820 5820 5820 5820 5820 5820 5820 5819 5819 5819 5819 5820 5820 5820 5820 5820 5820 5820 5819 5819 5819 5818 5818 5818 5818 5818 5818 5817 5817 5817 5817 5816 5816 5816 5816 5816 5816 5815 5815 5814 5814 5813 5812 5812 5811 5810 5809
5813 5814 5816 5817 5818 5820 5822 5821 5820 5821 5822 5822 5823 5822 5822 5822 5821 5821 5821 5819 5818 5816 5818 5822 5821 5813 5810 5818 5824 5825 5827 5826 5823 5821 5819 5818 5817 5816 5816 5816 5817 5817 5816 5817 5816 5816 5816 5815 5815 5815 5816 5816 5816 5816 5816 5816 5815 5815 5815 5814 5814 5814 5814 5814 5814 5813 5813 5812 5812 5812 5812 5812 5811 5811 5811 5811 5810 5810 5809 5809 5808 5808 5807 5806 5805 5804
5808 5810 5812 5813 5814 5816 5817 5816 5817 5817 5817 5818 5818 5817 5818 5818 5818 5818 5816 5815 5813 5810 5815 5819 5818 5811 5805 5811 5819 5821 5822 5821 5819 5818 5816 5815 5814 5812 5813 5813 5813 5813 5813 5813 5813 5812 5812 5812 5812 5812 5812 5812 5812 5811 5811 5812 5811 5811 5811 5810 5810 5810 5809 5809 5809 5808 5808 5808 5807 5807 5807 5807 5807 5806 5806 5806 5805 5805 5805 5804 5803 5803 5802 5801 5800 5799
5803 5806 5807 5809 5811 5812 5812 5812 5812 5813 5813 5813 5813 5813 5814 5813 5814 5813 5811 5812 5807 5805 5813 5816 5814 5809 5800 5804 5814 5817 5818 5817 5815 5815 5812 5811 5811 5810 5810 5809 5809 5810 5809 5809 5809 5809 5808 5808 5808 5808 5808 5808 5807 5807 5807 5807 5807 5806 5806 5806 5805 5805 5805 5805 5804 5804 5803 5803 5803 5802 5802 5802 5802 5801 5801 5801 5800 5800 5800 5799 5798 5798 5797 5796 5795 5794
5799 5800 5802 5805 5806 5807 5807 5807 5808 5808 5808 5809 5810 5810 5810 5809 5809 5808 5808 5807 5802 5802 5809 5810 5808 5804 5797 5801 5809 5812 5814 5813 5811 5811 5809 5808 5808 5807 5806 5806 5805 5805 5805 5805 5805 5805 5805 5804 5804 5804 5804 5803 5803 5803 5802 5802 5802 5801 5801 5801 5801 5800 5800 5800 5799 5799 5799 5798 5798 5798 5797 5797 5797 5797 5796 5796 5796 5795 5795 5794 5793 5793 5792 5791 5790 5789
5794 5795 5797 5799 5800 5802 5803 5803 5803 5804 5805 5805 5806 5806 5805 5804 5804 5803 5803 5802 5799 5800 5804 5804 5802 5797 5795 5800 5805 5807 5810 5809 5807 5806 5806 5805 5805 5803 5802 5802 5801 5801 5800 5800 5800 5800 5800 5800 5800 5800 5799 5799 5799 5798 5798 5797 5797 5797 5796 5796 5796 5795 5795 5795 5794 5794 5794 5793 5793 5793 5793 5792 5792 5792 5792 5792 5791 5791 5790 5789 5788 5788 5787 5786 5785 5784
5788 5790 5792 5794 5796 5798 5798 5798 5799 5800 5800 5800 5802 5802 5801 5801 5799 5798 5799 5797 5795 5796 5797 5798 5796 5791 5792 5798 5801 5803 5805 5805 5803 5801 5801 5801 5801 5800 5799 5798 5798 5797 5796 5796 5796 5796 5796 5796 5796 5795 5795 5795 5794 5794 5793 5793 5793 5792 5792 5791 5791 5790 5790 5790 5790 5789 5789 5789 5789 5788 5788 5788 5787 5787 5787 5787 5787 5786 5785 5784 5783 5783 5782 5781 5780 5778
5783 5785 5789 5790 5790 5792 5792 5793 5794 5794 5794 5795 5797 5796 5796 5797 5795 5794 5794 5792 5790 5791 5791 5791 5789 5787 5790 5793 5795 5798 5800 5800 5799 5797 5796 5796 5796 5796 5796 5795 5794 5793 5792 5792 5792 5792 5792 5791 5791 5791 5790 5790 5789 5789 5789 5788 5788 5787 5787 5787 5786 5786 5785 5785 5784 5784 5784 5784 5784 5783 5783 5783 5783 5783 5783 5782 5782 5781 5780 5780 5779 5778 5777 5776 5774 5773
5777 5779 5785 5785 5784 5786 5786 5787 5788 5788 5788 5789 5791 5791 5792 5794 5792 5790 5789 5788 5786 5784 5784 5786 5784 5784 5788 5789 5790 5792 5793 5796 5796 5794 5793 5791 5790 5791 5791 5790 5790 5789 5789 5788 5788 5788 5788 5787 5787 5786 5786 5785 5785 5785 5784 5784 5783 5783 5783 5782 5782 5781 5780 5780 5780 5779 5779 5779 5779 5779 5778 5778 5778 5778 5778 5777 5777 5776 5775 5775 5774 5773 5771 5770 5768 5767
5771 5774 5778 5777 5778 5780 5780 5780 5781 5782 5783 5784 5785 5786 5788 5788 5786 5784 5784 5784 5782 5778 5778 5780 5779 5781 5783 5784 5786 5787 5787 5791 5792 5791 5790 5788 5786 5786 5786 5786 5786 5785 5785 5784 5783 5783 5783 5783 5782 5782 5781 5781 5780 5780 5779 5779 5778 5778 5778 5777 5777 5776 5776 5775 5775 5774 5774 5774 5774 5774 5774 5773 5773 5773 5772 5772 5771 5771 5770 5769 5768 5767 5765 5764 5762 5761
5766 5767 5769 5771 5771 5773 5774 5774 5775 5776 5777 5778 5779 5782 5782 5781 5780 5780 5778 5779 5778 5774 5772 5774 5774 5775 5778 5778 5782 5783 5783 5785 5787 5787 5786 5785 5783 5782 5781 5781 5782 5781 5780 5780 5779 5778 5778 5778 5777 5777 5777 5776 5776 5776 5775 5775 5774 5774 5773 5773 5772 5772 5771 5770 5770 5769 5769 5769 5769 5769 5769 5768 5768 5768 5767 5767 5766 5765 5765 5763 5762 5761 5759 5758 5756 5754
5760 5759 5761 5764 5764 5766 5767 5767 5769 5771 5772 5772 5773 5775 5775 5774 5774 5775 5773 5773 5773 5770 5768 5768 5767 5769 5773 5775 5777 5779 5778 5778 5781 5782 5781 5781 5780 5779 5777 5777 5777 5777 5776 5775 5775 5774 5773 5773 5772 5772 5772 5771 5771 5771 5771 5770 5770 5769 5768 5768 5767 5767 5766 5765 5765 5765 5765 5765 5764 5764 5763 5763 5763 5762 5762 5761 5761 5760 5759 5758 5756 5755 5753 5752 5750 5748
5754 5753 5753 5757 5758 5758 5759 5760 5763 5766 5766 5766 5767 5768 5768 5768 5768 5769 5768 5768 5767 5765 5764 5763 5761 5763 5769 5772 5772 5773 5773 5772 5773 5777 5778 5777 5776 5774 5773 5773 5772 5772 5772 5771 5770 5769 5769 5768 5767 5767 5767 5766 5766 5766 5765 5765 5764 5764 5763 5762 5762 5761 5761 5761 5760 5760 5760 5759 5759 5758 5758 5758 5757 5757 5756 5756 5755 5754 5753 5752 5751 5749 5747 5745 5744 5742
5745 5745 5747 5749 5750 5749 5751 5756 5759 5760 5760 5760 5761 5761 5762 5762 5762 5761 5761 5762 5762 5761 5760 5759 5756 5757 5764 5766 5765 5766 5767 5765 5766 5771 5773 5772 5771 5770 5769 5768 5768 5767 5767 5766 5765 5765 5764 5763 5763 5762 5761 5761 5761 5760 5760 5760 5759 5758 5758 5757 5757 5756 5756 5756 5755 5755 5754 5754 5753 5753 5753 5752 5752 5751 5751 5750 5750 5749 5748 5746 5745 5743 5741 5739 5737 5735
5739 5738 5740 5740 5741 5744 5747 5751 5752 5751 5752 5752 5753 5755 5756 5756 5755 5754 5754 5756 5757 5757 5758 5756 5750 5751 5757 5759 5760 5759 5758 5758 5761 5766 5768 5766 5765 5765 5764 5764 5764 5763 5763 5762 5760 5760 5760 5759 5758 5757 5757 5756 5756 5755 5755 5754 5753 5753 5752 5752 5751 5751 5751 5750 5750 5749 5749 5748 5748 5748 5747 5747 5746 5746 5746 5745 5744 5743 5742 5740 5738 5736 5734 5732 5730 5728
5731 5730 5730 5731 5734 5738 5740 5741 5742 5743 5744 5744 5746 5748 5749 5748 5747 5748 5749 5752 5753 5753 5754 5751 5744 5746 5752 5754 5755 5753 5750 5752 5757 5759 5762 5761 5760 5759 5759 5759 5759 5758 5758 5757 5756 5755 5755 5754 5754 5752 5752 5751 5751 5751 5750 5749 5749 5748 5747 5747 5746 5746 5746 5745 5745 5744 5743 5743 5742 5742 5741 5741 5741 5741 5740 5739 5738 5737 5735 5733 5731 5729 5727 5725 5723 5721
5721 5719 5721 5723 5726 5729 5730 5732 5734 5735 5736 5736 5738 5741 5741 5742 5743 5743 5744 5746 5745 5745 5747 5744 5739 5743 5749 5749 5749 5748 5745 5748 5751 5753 5755 5755 5753 5753 5753 5754 5753 5753 5753 5752 5751 5750 5750 5750 5749 5748 5748 5748 5747 5746 5745 5745 5744 5743 5743 5742 5741 5741 5741 5740 5740 5739 5738 5738 5737 5737 5736 5736 5736 5735 5734 5733 5731 5730 5728 5726 5724 5722 5720 5718 5716 5713
5712 5711 5714 5715 5716 5719 5720 5723 5726 5728 5729 5730 5732 5734 5735 5738 5738 5737 5738 5738 5737 5738 5740 5736 5734 5740 5745 5743 5743 5743 5742 5742 5743 5746 5749 5748 5746 5747 5747 5747 5747 5747 5747 5746 5745 5745 5744 5744 5744 5744 5744 5743 5742 5741 5741 5740 5739 5738 5738 5737 5737 5736 5736 5735 5734 5733 5733 5733 5732 5731 5731 5730 5729 5728 5727 5726 5724 5722 5720 5719 5717 5715 5713 5711 5708 5705
5703 5703 5706 5706 5706 5709 5712 5715 5720 5724 5724 5724 5727 5729 5730 5731 5730 5730 5731 5730 5728 5731 5731 5727 5730 5737 5739 5738 5738 5739 5738 5736 5735 5737 5740 5741 5741 5742 5742 5741 5741 5740 5740 5740 5740 5739 5738 5738 5738 5739 5739 5738 5737 5737 5736 5735 5734 5733 5733 5732 5732 5731 5730 5729 5729 5728 5728 5727 5726 5725 5725 5724 5723 5721 5720 5718 5716 5715 5713 5712 5710 5708 5706 5703 5700 5698
5694 5694 5696 5697 5698 5703 5708 5712 5716 5717 5716 5716 5719 5721 5721 5722 5722 5721 5721 5720 5722 5724 5721 5723 5729 5731 5732 5734 5734 5734 5734 5733 5730 5728 5729 5733 5734 5736 5736 5735 5734 5733 5734 5734 5734 5733 5733 5733 5733 5733 5733 5732 5732 5731 5731 5730 5729 5728 5727 5727 5726 5725 5725 5724 5723 5722 5722 5721 5720 5719 5718 5717 5716 5714 5713 5711 5709 5708 5706 5705 5703 5701 5699 5696 5693 5691
5684 5684 5688 5690 5692 5698 5705 5707 5706 5706 5707 5709 5712 5712 5713 5714 5714 5712 5711 5714 5717 5715 5714 5722 5724 5722 5726 5730 5729 5729 5728 5728 5726 5723 5723 5726 5726 5726 5727 5727 5727 5727 5727 5727 5727 5727 5727 5727 5727 5727 5727 5727 5726 5726 5725 5724 5723 5723 5722 5721 5720 5720 5719 5718 5717 5717 5716 5715 5714 5713 5712 5711 5709 5707 5706 5704 5703 5701 5700 5698 5696 5693 5691 5689 5686 5683
5676 5676 5681 5685 5686 5692 5699 5699 5697 5698 5700 5702 5703 5704 5705 5706 5705 5704 5706 5710 5709 5704 5709 5718 5715 5712 5720 5724 5723 5725 5724 5722 5722 5720 5720 5720 5718 5718 5719 5719 5719 5720 5720 5719 5720 5721 5722 5722 5722 5722 5721 5720 5719 5719 5719 5718 5717 5717 5716 5716 5715 5714 5713 5712 5711 5711 5709 5709 5708 5707 5705 5704 5702 5701 5699 5698 5696 5694 5693 5691 5689 5686 5684 5681 5678 5676
5669 5671 5676 5679 5679 5684 5691 5691 5690 5692 5692 5692 5694 5695 5697 5698 5698 5700 5701 5703 5700 5696 5703 5710 5704 5705 5715 5717 5717 5720 5718 5716 5716 5715 5714 5714 5713 5713 5712 5712 5712 5712 5711 5711 5713 5714 5715 5715 5715 5714 5714 5714 5713 5712 5712 5712 5711 5711 5710 5710 5709 5708 5707 5706 5705 5704 5703 5702 5701 5700 5698 5697 5695 5694 5692 5691 5689 5687 5685 5684 5681 5679 5676 5673 5671 5669
5664 5666 5670 5673 5670 5673 5682 5684 5682 5683 5683 5683 5684 5686 5689 5691 5692 5693 5694 5694 5691 5690 5697 5701 5696 5700 5710 5712 5712 5712 5709 5708 5708 5707 5708 5709 5708 5707 5705 5705 5706 5705 5704 5705 5706 5708 5708 5708 5707 5707 5707 5707 5707 5706 5706 5706 5705 5705 5704 5704 5703 5702 5700 5699 5699 5698 5697 5696 5694 5693 5691 5690 5689 5687 5685 5683 5682 5680 5678 5676 5673 5671 5669 5667 5665 5662
5658 5660 5664 5665 5660 5664 5676 5676 5672 5675 5675 5672 5673 5678 5683 5686 5686 5684 5685 5687 5686 5686 5691 5692 5690 5697 5706 5706 5704 5702 5700 5701 5702 5701 5701 5701 5700 5700 5700 5700 5700 5699 5700 5700 5700 5701 5700 5699 5700 5700 5700 5700 5700 5700 5699 5698 5698 5698 5698 5697 5696 5695 5694 5693 5692 5691 5690 5689 5687 5686 5685 5684 5682 5680 5678 5676 5675 5673 5670 5667 5665 5664 5662 5661 5658 5655
5651 5652 5656 5657 5652 5657 5668 5667 5664 5666 5660 5656 5667 5678 5682 5681 5678 5676 5678 5681 5682 5681 5681 5681 5684 5694 5699 5696 5695 5694 5694 5694 5694 5694 5693 5693 5693 5693 5694 5695 5695 5694 5695 5694 5694 5693 5691 5691 5692 5693 5693 5693 5693 5693 5691 5690 5690 5690 5690 5689 5688 5688 5687 5686 5686 5685 5684 5683 5681 5680 5679 5677 5675 5673 5671 5669 5667 5664 5662 5660 5659 5657 5655 5653 5650 5647
5644 5646 5648 5649 5647 5651 5658 5658 5656 5651 5644 5651 5669 5678 5675 5671 5669 5669 5672 5675 5675 5672 5671 5673 5679 5687 5690 5689 5688 5687 5686 5685 5686 5687 5687 5687 5686 5686 5686 5688 5688 5688 5688 5687 5686 5685 5685 5685 5686 5686 5686 5686 5685 5685 5683 5682 5683 5682 5682 5681 5680 5680 5679 5679 5678 5677 5677 5676 5674 5673 5672 5669 5668 5665 5663 5661 5658 5656 5655 5654 5652 5650 5648 5645 5642 5638
5637 5639 5640 5641 5641 5643 5648 5649 5643 5636 5640 5655 5667 5668 5666 5664 5662 5662 5664 5666 5666 5665 5666 5669 5675 5681 5683 5682 5680 5678 5677 5677 5679 5682 5683 5680 5679 5680 5680 5681 5682 5681 5680 5679 5679 5679 5679 5679 5680 5679 5679 5679 5678 5677 5676 5675 5675 5674 5674 5673 5672 5672 5671 5670 5670 5669 5669 5668 5667 5665 5664 5661 5659 5657 5655 5653 5651 5650 5649 5647 5645 5642 5639 5636 5632 5629
5631 5632 5633 5633 5634 5636 5638 5636 5631 5632 5642 5652 5655 5658 5660 5658 5656 5655 5655 5658 5662 5662 5662 5665 5669 5673 5674 5673 5672 5671 5670 5670 5673 5678 5677 5673 5673 5673 5673 5675 5675 5673 5674 5674 5674 5674 5674 5673 5674 5673 5672 5672 5671 5670 5669 5668 5667 5667 5666 5665 5664 5664 5663 5662 5661 5661 5660 5659 5658 5657 5655 5652 5650 5648 5647 5646 5644 5643 5641 5639 5636 5633 5630 5627 5624 5622
5625 5625 5627 5626 5626 5627 5627 5626 5628 5631 5635 5641 5648 5654 5655 5652 5650 5649 5646 5651 5658 5659 5657 5659 5661 5663 5664 5665 5666 5665 5662 5662 5667 5674 5673 5666 5665 5666 5666 5667 5668 5667 5668 5669 5668 5668 5668 5667 5667 5666 5665 5665 5664 5663 5663 5661 5660 5660 5659 5658 5657 5656 5655 5654 5653 5652 5651 5650 5649 5648 5646 5644 5642 5641 5639 5638 5637 5635 5633 5630 5627 5624 5621 5619 5617 5614
5619 5619 5621 5619 5619 5621 5621 5620 5622 5621 5624 5636 5646 5649 5647 5646 5645 5642 5636 5641 5652 5656 5653 5651 5652 5655 5657 5659 5659 5657 5654 5654 5661 5669 5666 5658 5658 5659 5658 5660 5661 5660 5661 5661 5661 5661 5660 5660 5660 5659 5658 5658 5657 5656 5656 5654 5653 5653 5652 5651 5650 5649 5647 5646 5645 5644 5643 5642 5640 5639 5638 5636 5635 5633 5632 5631 5629 5628 5625 5622 5619 5616 5614 5611 5608 5606
5611 5613 5615 5612 5611 5614 5614 5613 5612 5611 5620 5636 5641 5639 5638 5638 5637 5633 5627 5633 5649 5653 5647 5643 5645 5648 5651 5651 5650 5649 5646 5647 5655 5660 5656 5651 5652 5653 5652 5652 5653 5652 5653 5653 5653 5653 5653 5652 5652 5652 5651 5650 5649 5649 5648 5647 5646 5645 5644 5644 5643 5641 5640 5639 5637 5636 5635 5633 5632 5631 5630 5629 5628 5626 5625 5624 5622 5620 5617 5614 5611 5608 5605 5602 5600 5597
5603 5605 5606 5603 5603 5606 5606 5605 5604 5606 5618 5631 5632 5629 5631 5631 5629 5624 5619 5629 5645 5647 5640 5639 5640 5642 5643 5641 5641 5641 5640 5642 5647 5649 5647 5645 5646 5645 5645 5645 5645 5645 5645 5645 5645 5645 5645 5644 5644 5644 5643 5643 5642 5641 5641 5640 5639 5638 5637 5636 5635 5634 5633 5631 5629 5628 5627 5626 5625 5623 5622 5621 5620 5619 5618 5616 5613 5611 5608 5606 5603 5600 5597 5594 5591 5588
5595 5597 5596 5596 5598 5600 5599 5598 5598 5601 5613 5624 5623 5621 5623 5621 5617 5613 5616 5629 5639 5636 5633 5634 5632 5632 5634 5633 5633 5635 5635 5635 5638 5640 5639 5639 5638 5638 5638 5638 5637 5637 5638 5637 5637 5637 5637 5637 5636 5636 5635 5635 5634 5633 5633 5632 5631 5630 5629 5628 5626 5626 5625 5623 5621 5621 5620 5618 5617 5615 5615 5614 5612 5611 5609 5607 5605 5603 5600 5597 5594 5591 5588 5585 5582 5579
5588 5589 5588 5589 5592 5593 5593 5593 5591 5594 5608 5617 5614 5612 5613 5610 5607 5611 5620 5627 5627 5625 5626 5624 5622 5624 5627 5627 5628 5629 5628 5628 5630 5631 5631 5631 5630 5631 5630 5630 5630 5630 5630 5630 5630 5630 5629 5629 5629 5628 5627 5627 5626 5625 5625 5624 5623 5622 5620 5619 5618 5617 5617 5615 5614 5612 5611 5610 5609 5608 5607 5606 5604 5603 5601 5599 5596 5594 5591 5589 5586 5583 5580 5576 5573 5570
5581 5581 5579 5581 5586 5587 5585 5584 5582 5587 5603 5610 5604 5601 5604 5604 5606 5611 5615 5615 5615 5616 5617 5616 5616 5618 5619 5620 5622 5622 5621 5622 5622 5622 5623 5623 5623 5624 5623 5623 5623 5622 5622 5622 5622 5622 5622 5622 5621 5621 5620 5619 5618 5617 5617 5616 5615 5614 5612 5611 5610 5609 5608 5606 5605 5604 5602 5601 5600 5599 5598 5597 5596 5595 5593 5590 5588 5585 5583 5580 5577 5574 5570 5566 5563 5560
5571 5572 5571 5575 5580 5578 5575 5575 5578 5586 5597 5599 5595 5595 5598 5599 5600 5602 5602 5603 5606 5608 5609 5609 5611 5611 5611 5613 5614 5614 5614 5615 5615 5615 5616 5616 5617 5617 5617 5616 5616 5615 5615 5615 5614 5615 5614 5614 5614 5613 5612 5611 5610 5609 5609 5608 5607 5606 5605 5604 5602 5601 5599 5598 5596 5595 5594 5593 5592 5591 5590 5589 5587 5585 5583 5581 5578 5576 5573 5570 5566 5563 5560 5556 5553 5551
5562 5565 5566 5569 5573 5571 5569 5573 5577 5582 5586 5587 5586 5589 5589 5589 5590 5592 5593 5595 5597 5599 5601 5603 5603 5603 5605 5605 5605 5606 5607 5607 5607 5608 5609 5609 5610 5610 5609 5609 5609 5608 5608 5607 5607 5607 5606 5606 5606 5605 5604 5603 5602 5601 5600 5600 5599 5598 5596 5595 5593 5591 5590 5588 5587 5586 5585 5584 5583 5582 5581 5580 5578 5576 5574 5571 5568 5565 5562 5559 5556 5553 5550 5547 5544 5541
5556 5560 5561 5562 5563 5563 5564 5567 5571 5574 5576 5577 5578 5580 5580 5581 5583 5584 5585 5586 5588 5590 5593 5594 5595 5596 5597 5597 5597 5598 5598 5599 5600 5601 5601 5602 5602 5602 5601 5601 5601 5601 5600 5600 5599 5599 5598 5597 5596 5595 5595 5594 5593 5592 5591 5590 5590 5589 5587 5586 5584 5582 5581 5580 5578 5578 5577 5576 5575 5574 5572 5571 5568 5566 5564 5560 5557 5555 5551 5548 5546 5543 5540 5537 5534 5531
5549 5552 5553 5553 5554 5555 5557 5561 5565 5566 5567 5569 5570 5571 5573 5574 5575 5576 5577 5578 5580 5583 5585 5586 5587 5588 5588 5588 5589 5589 5590 5591 5592 5592 5592 5593 5592 5592 5593 5593 5592 5592 5592 5591 5591 5590 5589 5588 5587 5586 5586 5584 5583 5583 5582 5581 5580 5579 5578 5577 5575 5574 5572 5571 5570 5569 5568 5567 5566 5564 5563 5561 5558 5555 5553 5550 5547 5544 5542 5539 5536 5533 5530 5527 5524 5521
5541 5543 5543 5544 5545 5547 5550 5555 5559 5558 5558 5561 5563 5564 5565 5566 5566 5567 5569 5570 5572 5574 5576 5578 5579 5580 5581 5581 5581 5581 5582 5582 5582 5582 5582 5582 5582 5583 5583 5583 5582 5583 5582 5581 5581 5581 5580 5579 5578 5577 5576 5575 5574 5574 5573 5571 5571 5569 5568 5567 5566 5564 5564 5562 5561 5561 5559 5558 5557 5555 5553 5551 5548 5545 5543 5540 5538 5535 5532 5529 5527 5523 5521 5518 5514 5511
5531 5533 5534 5536 5537 5539 5543 5548 5551 5550 5551 5554 5554 5555 5556 5556 5557 5559 5560 5562 5565 5566 5568 5570 5571 5572 5573 5574 5573 5574 5574 5573 5573 5574 5573 5573 5573 5573 5573 5573 5573 5572 5572 5572 5572 5571 5571 5570 5569 5568 5567 5566 5565 5564 5563 5562 5561 5559 5558 5557 5556 5555 5555 5553 5553 5552 5550 5549 5548 5545 5543 5541 5539 5536 5534 5531 5529 5526 5523 5520 5517 5514 5511 5508 5505 5502
5524 5525 5528 5529 5530 5532 5538 5541 5541 5541 5543 5544 5545 5545 5546 5547 5550 5552 5553 5555 5557 5558 5560 5562 5563 5564 5565 5566 5566 5566 5565 5565 5566 5565 5565 5565 5565 5564 5564 5564 5563 5563 5563 5563 5562 5562 5561 5560 5559 5558 5557 5556 5555 5554 5553 5552 5551 5550 5549 5548 5547 5547 5546 5545 5544 5542 5541 5539 5538 5536 5534 5532 5529 5527 5525 5522 5519 5516 5513 5510 5507 5504 5501 5498 5495 5492
5519 5520 5522 5522 5522 5526 5530 5531 5530 5531 5533 5535 5536 5537 5538 5541 5544 5545 5546 5548 5549 5551 5553 5554 5555 5556 5557 5557 5557 5557 5557 5557 5557 5557 5557 5557 5556 5556 5556 5555 5555 5555 5554 5554 5553 5552 5551 5550 5550 5549 5547 5547 5546 5545 5544 5543 5543 5542 5541 5540 5539 5538 5537 5536 5534 5533 5531 5530 5528 5526 5524 5521 5519 5517 5514 5511 5509 5506 5503 5500 5497 5494 5491 5488 5485 5481